TGM annuale;;;;;;;;;;;;;;;;TGM annuale;;;;;;;;;;;;;;;;TGM annuale;;;;;;;;;;;;;;
Tratta nr.21 SR70, Km 1.000, Pelago(FI) (flussi ascendente/discendente);;;;;;;;;;;;;;;;Tratta nr.21 SR70, Km 1.000, Pelago(FI) (flusso ascendente);;;;;;;;;;;;;;;;Tratta nr.21 SR70, Km 1.000, Pelago(FI) (flusso discendente);;;;;;;;;;;;;;
Anno;01 Motocicli;02 Auto e monovolume;03 Auto e monovolume con rimorchio;04 Furgoncini e camioncini;05 Camion medi;06 Camion grandi;07 Autotreni;08 Autoarticolati;09 Autobus;10 Veicoli non classificati;Totale;Feriali;Festivi;Prefestivi;;Anno;01 Motocicli;02 Auto e monovolume;03 Auto e monovolume con rimorchio;04 Furgoncini e camioncini;05 Camion medi;06 Camion grandi;07 Autotreni;08 Autoarticolati;09 Autobus;10 Veicoli non classificati;Totale;Feriali;Festivi;Prefestivi;;Anno;01 Motocicli;02 Auto e monovolume;03 Auto e monovolume con rimorchio;04 Furgoncini e camioncini;05 Camion medi;06 Camion grandi;07 Autotreni;08 Autoarticolati;09 Autobus;10 Veicoli non classificati;Totale;Feriali;Festivi;Prefestivi
2019;244;7759;4;678;77;44;21;23;45;0;8894;8818;8877;9278;;2019;111;3772;0;433;45;24;15;7;24;0;4431;4416;4156;4836;;2019;133;3987;4;244;32;20;6;16;21;0;4462;4402;4722;4442
;;;;;;;;;;;;;;;;;;;;;;;;;;;;;;;;;;;;;;;;;;;;;;
Tabella flussi 2019;;;;;;;;;;;;;;;;Tabella flussi 2019;;;;;;;;;;;;;;;;Tabella flussi 2019;;;;;;;;;;;;;;
Tratta nr.21 SR70, Km 1.000, Pelago(FI) (flussi ascendente/discendente);;;;;;;;;;;;;;;;Tratta nr.21 SR70, Km 1.000, Pelago(FI) (flusso ascendente);;;;;;;;;;;;;;;;Tratta nr.21 SR70, Km 1.000, Pelago(FI) (flusso discendente);;;;;;;;;;;;;;
;Traffico Totale;;;;;;;;;;;Traffico Med.Orario 06:00 - 20:00;Traffico Ora di punta;;;;Traffico Totale;;;;;;;;;;;Traffico Med.Orario 06:00 - 20:00;Traffico Ora di punta;;;;Traffico Totale;;;;;;;;;;;Traffico Med.Orario 06:00 - 20:00;Traffico Ora di punta;
Giorno;01 Motocicli;02 Auto e monovolume;03 Auto e monovolume con rimorchio;04 Furgoncini e camioncini;05 Camion medi;06 Camion grandi;07 Autotreni;08 Autoarticolati;09 Autobus;10 Veicoli non classificati;Totale;Totale;Ora di punta;Flusso totale ora di punta;;Giorno;01 Motocicli;02 Auto e monovolume;03 Auto e monovolume con rimorchio;04 Furgoncini e camioncini;05 Camion medi;06 Camion grandi;07 Autotreni;08 Autoarticolati;09 Autobus;10 Veicoli non classificati;Totale;Totale;Ora di punta;Flusso totale ora di punta;;Giorno;01 Motocicli;02 Auto e monovolume;03 Auto e monovolume con rimorchio;04 Furgoncini e camioncini;05 Camion medi;06 Camion grandi;07 Autotreni;08 Autoarticolati;09 Autobus;10 Veicoli non classificati;Totale;Totale;Ora di punta;Flusso totale ora di punta
01/01/2019;165;6315;1;276;17;1;1;1;0;0;6777;366;16;737;;01/01/2019;63;2677;0;192;12;1;1;1;0;0;2947;154;15;271;;01/01/2019;102;3638;1;84;5;0;0;0;0;0;3830;212;16;526
02/01/2019;134;6756;1;588;44;37;11;28;50;0;7649;489;17;621;;02/01/2019;46;3222;0;372;23;21;7;7;26;0;3724;232;18;378;;02/01/2019;88;3534;1;216;21;16;4;21;24;0;3925;257;7;352
03/01/2019;124;6631;3;687;56;33;12;18;51;0;7615;481;17;664;;03/01/2019;35;3170;0;407;32;17;9;6;27;0;3703;230;17;393;;03/01/2019;89;3461;3;280;24;16;3;12;24;0;3912;251;7;383
04/01/2019;132;6713;3;654;50;35;20;18;46;0;7671;478;17;639;;04/01/2019;47;3282;0;412;30;21;17;6;24;0;3839;232;18;381;;04/01/2019;85;3431;3;242;20;14;3;12;22;0;3832;246;7;366
05/01/2019;131;6717;3;470;42;16;2;0;44;0;7425;451;17;573;;05/01/2019;45;3304;0;319;26;11;2;0;24;0;3731;221;12;310;;05/01/2019;86;3413;3;151;16;5;0;0;20;0;3694;230;15;343
06/01/2019;120;6336;1;303;22;6;0;0;15;0;6803;411;17;761;;06/01/2019;49;2873;0;227;17;2;0;0;8;0;3176;187;11;290;;06/01/2019;71;3463;1;76;5;4;0;0;7;0;3627;224;17;514
07/01/2019;115;6441;1;656;97;53;14;34;53;0;7464;481;7;639;;07/01/2019;44;3048;0;392;51;30;11;12;28;0;3616;225;18;375;;07/01/2019;71;3393;1;264;46;23;3;22;25;0;3848;255;7;480
08/01/2019;96;6399;1;655;87;56;23;17;53;0;7387;474;7;652;;08/01/2019;34;3080;0;407;56;25;17;5;30;0;3654;228;18;389;;08/01/2019;62;3319;1;248;31;31;6;12;23;0;3733;246;7;480
09/01/2019;121;6713;3;686;83;60;13;34;49;0;7762;498;7;664;;09/01/2019;54;3270;0;411;41;34;12;12;26;0;3860;240;18;389;;09/01/2019;67;3443;3;275;42;26;1;22;23;0;3902;258;7;484
10/01/2019;123;6724;4;698;93;50;26;26;52;0;7796;495;7;655;;10/01/2019;46;3313;0;412;56;27;21;5;26;0;3906;238;18;409;;10/01/2019;77;3411;4;286;37;23;5;21;26;0;3890;257;7;485
11/01/2019;140;6920;2;723;95;47;15;23;53;0;8018;504;7;646;;11/01/2019;46;3448;0;442;59;26;12;9;29;0;4071;249;18;430;;11/01/2019;94;3472;2;281;36;21;3;14;24;0;3947;255;7;486
12/01/2019;153;6450;1;494;22;12;1;1;41;0;7175;437;15;555;;12/01/2019;58;3195;0;342;13;9;1;1;20;0;3639;214;12;328;;12/01/2019;95;3255;1;152;9;3;0;0;21;0;3536;223;15;338
13/01/2019;155;5894;2;305;17;2;0;0;15;0;6390;376;17;635;;13/01/2019;69;2735;0;231;10;0;0;0;10;0;3055;170;12;281;;13/01/2019;86;3159;2;74;7;2;0;0;5;0;3335;206;17;425
14/01/2019;129;6942;4;685;118;82;11;40;55;0;8066;519;17;708;;14/01/2019;46;3342;0;407;60;50;9;15;27;0;3956;247;18;455;;14/01/2019;83;3600;4;278;58;32;2;25;28;0;4110;272;7;503
15/01/2019;138;7000;1;770;145;62;26;21;54;0;8217;523;7;691;;15/01/2019;50;3378;0;452;84;36;20;5;29;0;4054;252;18;423;;15/01/2019;88;3622;1;318;61;26;6;16;25;0;4163;272;7;486
16/01/2019;143;7162;5;738;99;58;37;32;52;0;8326;534;7;689;;16/01/2019;57;3508;0;458;52;28;26;15;27;0;4171;259;18;404;;16/01/2019;86;3654;5;280;47;30;11;17;25;0;4155;275;7;496
17/01/2019;124;6833;8;708;111;47;22;49;48;0;7950;501;8;659;;17/01/2019;43;3306;0;440;62;22;18;20;28;0;3939;240;17;384;;17/01/2019;81;3527;8;268;49;25;4;29;20;0;4011;261;7;487
18/01/2019;125;7280;2;766;95;63;31;31;55;0;8448;532;7;685;;18/01/2019;38;3618;0;458;58;43;24;11;30;0;4280;264;17;421;;18/01/2019;87;3662;2;308;37;20;7;20;25;0;4168;268;7;495
19/01/2019;162;6888;3;515;42;13;2;2;47;0;7674;463;17;593;;19/01/2019;61;3434;0;342;29;9;2;2;24;0;3903;228;10;298;;19/01/2019;101;3454;3;173;13;4;0;0;23;0;3771;235;17;335
20/01/2019;138;6339;4;334;19;3;1;0;15;0;6853;404;17;652;;20/01/2019;43;2947;0;244;11;1;0;0;8;0;3254;188;11;278;;20/01/2019;95;3392;4;90;8;2;1;0;7;0;3599;216;17;389
21/01/2019;139;6604;5;699;106;58;31;34;43;0;7719;501;7;720;;21/01/2019;46;3139;0;411;65;28;27;7;22;0;3745;236;18;384;;21/01/2019;93;3465;5;288;41;30;4;27;21;0;3974;265;7;522
22/01/2019;75;5539;2;586;119;46;14;8;50;0;6439;417;7;608;;22/01/2019;22;2665;0;352;68;29;12;3;27;0;3178;201;17;320;;22/01/2019;53;2874;2;234;51;17;2;5;23;0;3261;216;7;439
23/01/2019;91;5335;2;533;90;37;10;17;48;0;6163;396;16;486;;23/01/2019;24;2613;0;329;47;23;10;5;25;0;3076;193;19;304;;23/01/2019;67;2722;2;204;43;14;0;12;23;0;3087;204;7;354
24/01/2019;116;6201;4;664;86;26;7;20;49;0;7173;456;17;620;;24/01/2019;36;3037;0;403;48;16;3;10;29;0;3582;220;17;361;;24/01/2019;80;3164;4;261;38;10;4;10;20;0;3591;236;7;423
25/01/2019;172;7117;4;755;100;40;19;24;56;0;8287;520;17;654;;25/01/2019;68;3490;0;477;49;21;13;7;34;0;4159;253;18;428;;25/01/2019;104;3627;4;278;51;19;6;17;22;0;4128;266;7;472
26/01/2019;151;7195;4;505;33;9;0;2;41;0;7940;488;11;627;;26/01/2019;47;3547;0;347;23;5;0;0;23;0;3992;240;11;358;;26/01/2019;104;3648;4;158;10;4;0;2;18;0;3948;248;16;367
27/01/2019;146;6448;2;323;15;5;0;0;17;0;6956;421;17;650;;27/01/2019;44;3036;0;239;9;4;0;0;10;0;3342;196;11;334;;27/01/2019;102;3412;2;84;6;1;0;0;7;0;3614;225;17;456
28/01/2019;127;6312;0;675;101;51;23;25;53;0;7367;476;7;638;;28/01/2019;43;3019;0;414;59;26;18;6;27;0;3612;227;18;392;;28/01/2019;84;3293;0;261;42;25;5;19;26;0;3755;249;7;466
29/01/2019;116;6669;1;716;97;58;17;26;47;0;7747;494;17;663;;29/01/2019;47;3217;0;449;50;33;14;9;25;0;3844;239;19;399;;29/01/2019;69;3452;1;267;47;25;3;17;22;0;3903;255;7;474
30/01/2019;102;5941;0;637;67;39;17;19;47;0;6869;448;7;674;;30/01/2019;26;2838;0;391;35;18;11;5;24;0;3348;212;17;277;;30/01/2019;76;3103;0;246;32;21;6;14;23;0;3521;236;7;511
31/01/2019;84;4659;2;488;69;17;8;12;50;0;5389;342;8;516;;31/01/2019;20;2274;0;300;42;10;6;7;28;0;2687;166;17;269;;31/01/2019;64;2385;2;188;27;7;2;5;22;0;2702;176;8;372
01/02/2019;113;6611;0;594;76;43;23;15;49;0;7524;474;17;594;;01/02/2019;24;3315;0;371;39;25;20;6;27;0;3827;235;18;404;;01/02/2019;89;3296;0;223;37;18;3;9;22;0;3697;238;7;415
02/02/2019;122;6136;1;437;28;12;4;3;41;0;6784;412;11;536;;02/02/2019;38;3012;0;291;18;11;4;1;19;0;3394;201;11;292;;02/02/2019;84;3124;1;146;10;1;0;2;22;0;3390;211;15;304
03/02/2019;134;5851;4;284;22;2;1;0;19;0;6317;373;17;542;;03/02/2019;45;2775;0;207;16;1;1;0;11;0;3056;175;11;288;;03/02/2019;89;3076;4;77;6;1;0;0;8;0;3261;198;17;338
04/02/2019;133;6554;3;672;83;71;17;43;50;0;7626;489;8;674;;04/02/2019;42;3143;0;416;44;40;15;15;24;0;3739;233;18;395;;04/02/2019;91;3411;3;256;39;31;2;28;26;0;3887;256;8;484
05/02/2019;153;6912;2;723;87;54;26;29;52;0;8038;515;7;700;;05/02/2019;58;3350;0;458;49;29;20;10;25;0;3999;249;18;410;;05/02/2019;95;3562;2;265;38;25;6;19;27;0;4039;266;7;494
06/02/2019;151;7056;2;760;93;65;39;41;55;0;8262;530;17;694;;06/02/2019;58;3433;0;451;53;31;34;9;31;0;4100;255;18;446;;06/02/2019;93;3623;2;309;40;34;5;32;24;0;4162;275;7;483
07/02/2019;136;6990;5;790;114;55;32;35;55;0;8212;518;7;697;;07/02/2019;57;3405;0;478;71;31;26;8;29;0;4105;251;17;408;;07/02/2019;79;3585;5;312;43;24;6;27;26;0;4107;267;7;494
08/02/2019;146;7434;2;823;119;63;23;28;49;0;8687;545;18;700;;08/02/2019;58;3679;0;514;62;34;19;9;26;0;4401;271;18;482;;08/02/2019;88;3755;2;309;57;29;4;19;23;0;4286;275;7;488
09/02/2019;179;7012;4;477;40;15;6;2;45;0;7780;468;16;580;;09/02/2019;67;3534;0;325;24;7;5;0;26;0;3988;233;10;308;;09/02/2019;112;3478;4;152;16;8;1;2;19;0;3792;235;16;329
10/02/2019;178;6117;2;333;16;2;1;0;15;0;6664;397;17;646;;10/02/2019;71;2824;0;257;6;0;0;0;8;0;3166;182;12;291;;10/02/2019;107;3293;2;76;10;2;1;0;7;0;3498;215;17;401
11/02/2019;150;6638;2;737;107;59;25;37;51;0;7806;499;7;686;;11/02/2019;63;3194;0;450;68;29;20;17;27;0;3868;238;18;418;;11/02/2019;87;3444;2;287;39;30;5;20;24;0;3938;261;7;510
12/02/2019;173;6835;5;753;96;58;29;26;56;0;8031;517;7;671;;12/02/2019;76;3310;0;453;58;35;22;9;30;0;3993;250;18;416;;12/02/2019;97;3525;5;300;38;23;7;17;26;0;4038;267;7;486
13/02/2019;152;7168;2;732;70;61;35;29;56;0;8305;530;17;696;;13/02/2019;51;3505;0;452;37;32;23;6;28;0;4134;255;19;427;;13/02/2019;101;3663;2;280;33;29;12;23;28;0;4171;275;7;493
14/02/2019;141;7144;3;749;120;81;26;30;51;0;8345;524;18;705;;14/02/2019;55;3472;0;451;66;49;18;14;28;0;4153;254;18;447;;14/02/2019;86;3672;3;298;54;32;8;16;23;0;4192;270;7;488
15/02/2019;164;7390;2;769;103;80;28;34;54;0;8624;537;18;692;;15/02/2019;74;3709;0;472;52;48;22;11;29;0;4417;266;18;469;;15/02/2019;90;3681;2;297;51;32;6;23;25;0;4207;271;7;495
16/02/2019;272;7690;4;546;36;17;2;1;43;0;8611;532;17;676;;16/02/2019;118;3870;0;382;23;14;1;1;24;0;4433;270;12;384;;16/02/2019;154;3820;4;164;13;3;1;0;19;0;4178;262;17;417
17/02/2019;219;7506;3;406;29;6;2;0;12;0;8183;497;17;868;;17/02/2019;118;3517;0;302;19;6;2;0;5;0;3969;236;11;383;;17/02/2019;101;3989;3;104;10;0;0;0;7;0;4214;261;17;639
18/02/2019;163;6814;5;714;88;67;28;33;52;0;7964;513;7;701;;18/02/2019;68;3261;0;444;49;34;20;7;26;0;3909;244;18;436;;18/02/2019;95;3553;5;270;39;33;8;26;26;0;4055;269;7;518
19/02/2019;157;6987;3;741;93;59;36;35;55;0;8166;524;17;717;;19/02/2019;73;3381;0;461;55;37;29;7;27;0;4070;252;18;441;;19/02/2019;84;3606;3;280;38;22;7;28;28;0;4096;272;7;513
20/02/2019;167;7235;6;745;122;66;30;29;53;0;8453;539;17;714;;20/02/2019;63;3526;0;441;66;37;16;4;26;0;4179;258;18;428;;20/02/2019;104;3709;6;304;56;29;14;25;27;0;4274;281;7;519
21/02/2019;141;6947;3;757;139;67;33;26;52;0;8165;517;7;728;;21/02/2019;56;3426;0;476;72;32;24;10;27;0;4123;252;18;431;;21/02/2019;85;3521;3;281;67;35;9;16;25;0;4042;265;7;529
22/02/2019;154;7466;2;819;115;60;23;22;51;0;8712;546;17;705;;22/02/2019;73;3742;0;500;65;35;15;3;27;0;4460;274;18;455;;22/02/2019;81;3724;2;319;50;25;8;19;24;0;4252;272;7;492
23/02/2019;185;7306;6;566;54;21;3;2;41;0;8184;500;16;629;;23/02/2019;75;3653;0;388;30;15;3;1;20;0;4185;249;12;355;;23/02/2019;110;3653;6;178;24;6;0;1;21;0;3999;251;16;353
24/02/2019;186;6843;6;386;33;4;0;0;20;0;7478;443;17;750;;24/02/2019;83;3201;0;272;26;4;0;0;11;0;3597;203;11;311;;24/02/2019;103;3642;6;114;7;0;0;0;9;0;3881;239;17;507
25/02/2019;130;6685;4;703;119;67;21;32;52;0;7813;505;7;724;;25/02/2019;60;3189;0;422;73;33;17;11;26;0;3831;240;18;410;;25/02/2019;70;3496;4;281;46;34;4;21;26;0;3982;265;7;528
26/02/2019;168;6970;6;718;186;50;38;30;57;0;8223;527;7;730;;26/02/2019;71;3379;0;446;98;30;25;6;30;0;4085;257;18;432;;26/02/2019;97;3591;6;272;88;20;13;24;27;0;4138;270;7;527
27/02/2019;187;7234;4;664;99;66;31;36;50;0;8371;528;7;716;;27/02/2019;80;3543;0;406;55;32;17;9;25;0;4167;253;17;386;;27/02/2019;107;3691;4;258;44;34;14;27;25;0;4204;275;7;522
28/02/2019;157;7122;1;785;101;45;28;33;52;0;8324;522;7;710;;28/02/2019;70;3539;0;465;58;24;20;7;27;0;4210;254;18;443;;28/02/2019;87;3583;1;320;43;21;8;26;25;0;4114;268;7;504
01/03/2019;159;7335;1;784;98;65;18;27;50;0;8537;535;7;681;;01/03/2019;70;3692;0;492;56;37;15;7;26;0;4395;268;18;453;;01/03/2019;89;3643;1;292;42;28;3;20;24;0;4142;267;7;503
02/03/2019;275;7634;3;513;27;12;2;2;41;0;8509;513;18;647;;02/03/2019;125;3844;0;353;14;6;2;1;23;0;4368;259;12;353;;02/03/2019;150;3790;3;160;13;6;0;1;18;0;4141;254;18;359
03/03/2019;337;7792;3;374;22;5;1;0;17;0;8551;519;17;930;;03/03/2019;172;3609;0;278;11;5;0;0;10;0;4085;243;12;409;;03/03/2019;165;4183;3;96;11;0;1;0;7;0;4466;276;17;645
04/03/2019;158;6774;6;715;86;58;25;34;55;0;7911;505;7;706;;04/03/2019;63;3240;0;441;51;34;20;13;27;0;3889;242;19;396;;04/03/2019;95;3534;6;274;35;24;5;21;28;0;4022;264;7;511
05/03/2019;157;6864;4;706;80;60;26;36;46;0;7979;509;17;683;;05/03/2019;66;3315;0;431;44;31;20;11;24;0;3942;246;18;417;;05/03/2019;91;3549;4;275;36;29;6;25;22;0;4037;264;7;476
06/03/2019;193;7091;2;754;89;66;27;22;50;0;8294;528;17;696;;06/03/2019;79;3473;0;451;50;35;17;5;25;0;4135;254;19;420;;06/03/2019;114;3618;2;303;39;31;10;17;25;0;4159;274;7;507
07/03/2019;149;6876;5;819;89;66;28;31;50;0;8113;515;7;704;;07/03/2019;70;3395;0;483;46;37;18;17;27;0;4093;251;18;435;;07/03/2019;79;3481;5;336;43;29;10;14;23;0;4020;264;7;504
08/03/2019;176;7691;1;733;82;60;35;40;52;0;8870;549;7;689;;08/03/2019;75;3898;0;455;42;40;28;13;27;0;4578;277;19;463;;08/03/2019;101;3793;1;278;40;20;7;27;25;0;4292;272;7;506
09/03/2019;252;7682;7;499;39;15;2;1;44;0;8541;523;18;639;;09/03/2019;128;3858;0;348;24;6;1;1;24;0;4390;266;13;348;;09/03/2019;124;3824;7;151;15;9;1;0;20;0;4151;256;18;349
10/03/2019;166;6738;1;344;21;3;0;1;18;0;7292;435;17;695;;10/03/2019;62;3035;0;256;12;1;0;0;11;0;3377;195;12;342;;10/03/2019;104;3703;1;88;9;2;0;1;7;0;3915;240;17;522
11/03/2019;136;6597;5;697;91;59;31;30;48;0;7694;497;7;721;;11/03/2019;53;3164;0;419;52;30;26;10;24;0;3778;238;19;407;;11/03/2019;83;3433;5;278;39;29;5;20;24;0;3916;259;7;525
12/03/2019;123;6666;5;752;89;51;24;26;53;0;7789;494;18;667;;12/03/2019;49;3208;0;464;52;28;20;5;30;0;3856;237;18;421;;12/03/2019;74;3458;5;288;37;23;4;21;23;0;3933;257;7;479
13/03/2019;107;6859;1;692;71;59;21;26;60;0;7896;501;7;632;;13/03/2019;38;3341;0;420;34;29;13;8;33;0;3916;239;18;401;;13/03/2019;69;3518;1;272;37;30;8;18;27;0;3980;262;7;473
14/03/2019;148;7076;3;713;87;57;28;31;58;0;8201;522;17;714;;14/03/2019;65;3475;0;433;50;25;20;12;32;0;4112;255;19;452;;14/03/2019;83;3601;3;280;37;32;8;19;26;0;4089;268;7;497
15/03/2019;189;7647;4;775;88;70;32;27;62;0;8894;552;7;716;;15/03/2019;85;3896;0;466;55;32;21;6;34;0;4595;276;18;466;;15/03/2019;104;3751;4;309;33;38;11;21;28;0;4299;275;7;513
16/03/2019;366;7779;6;538;47;17;2;4;48;0;8807;540;17;686;;16/03/2019;185;3907;0;378;32;16;1;3;28;0;4550;275;12;376;;16/03/2019;181;3872;6;160;15;1;1;1;20;0;4257;265;17;388
17/03/2019;246;7589;10;347;24;8;0;1;23;0;8248;490;18;819;;17/03/2019;111;3480;0;250;13;6;0;0;16;0;3876;224;12;339;;17/03/2019;135;4109;10;97;11;2;0;1;7;0;4372;266;17;554
18/03/2019;97;6561;7;680;84;70;17;31;49;0;7596;491;7;715;;18/03/2019;26;3097;0;408;48;39;14;9;26;0;3667;230;19;400;;18/03/2019;71;3464;7;272;36;31;3;22;23;0;3929;261;7;523
19/03/2019;124;6713;3;671;91;61;24;29;53;0;7769;493;7;714;;19/03/2019;55;3242;0;430;57;38;23;10;27;0;3882;238;19;427;;19/03/2019;69;3471;3;241;34;23;1;19;26;0;3887;256;7;508
20/03/2019;157;7040;4;694;112;73;27;27;52;0;8186;517;7;710;;20/03/2019;77;3426;0;429;64;44;16;9;26;0;4091;249;19;422;;20/03/2019;80;3614;4;265;48;29;11;18;26;0;4095;267;7;512
21/03/2019;156;7089;4;749;153;75;26;42;50;0;8344;529;7;728;;21/03/2019;70;3496;0;459;91;43;18;11;26;0;4214;260;18;440;;21/03/2019;86;3593;4;290;62;32;8;31;24;0;4130;269;7;495
22/03/2019;216;7619;4;779;147;72;23;25;53;0;8938;554;18;714;;22/03/2019;111;3876;0;474;86;40;20;5;26;0;4638;280;18;447;;22/03/2019;105;3743;4;305;61;32;3;20;27;0;4300;274;7;496
23/03/2019;437;8101;5;570;50;14;6;7;43;0;9233;565;18;760;;23/03/2019;225;4138;0;406;30;12;4;5;21;0;4841;292;10;388;;23/03/2019;212;3963;5;164;20;2;2;2;22;0;4392;273;18;428
24/03/2019;446;8747;6;389;33;6;1;1;17;0;9646;588;18;1052;;24/03/2019;245;4054;0;284;21;3;1;0;10;0;4618;279;12;461;;24/03/2019;201;4693;6;105;12;3;0;1;7;0;5028;309;18;767
25/03/2019;171;6854;6;645;146;67;30;38;56;0;8013;516;7;729;;25/03/2019;93;3257;0;396;89;37;20;9;31;0;3932;244;18;410;;25/03/2019;78;3597;6;249;57;30;10;29;25;0;4081;272;7;516
26/03/2019;127;6673;4;700;130;52;26;24;55;0;7791;495;7;676;;26/03/2019;43;3232;0;426;85;32;21;4;30;0;3873;239;18;429;;26/03/2019;84;3441;4;274;45;20;5;20;25;0;3918;256;7;504
27/03/2019;150;7021;8;750;86;60;28;36;50;0;8189;519;7;675;;27/03/2019;56;3404;0;474;53;35;20;9;26;0;4077;250;17;403;;27/03/2019;94;3617;8;276;33;25;8;27;24;0;4112;269;7;499
28/03/2019;169;7063;4;738;121;65;32;39;61;0;8292;522;7;724;;28/03/2019;77;3459;0;439;67;36;24;10;32;0;4144;252;18;462;;28/03/2019;92;3604;4;299;54;29;8;29;29;0;4148;270;7;501
29/03/2019;164;7809;3;754;88;52;30;43;59;0;9002;561;18;783;;29/03/2019;69;3992;0;475;48;30;23;16;32;0;4685;285;18;536;;29/03/2019;95;3817;3;279;40;22;7;27;27;0;4317;276;7;494
30/03/2019;414;8247;4;604;39;11;6;2;36;0;9363;576;18;778;;30/03/2019;209;4208;0;413;20;8;5;1;18;0;4882;296;12;404;;30/03/2019;205;4039;4;191;19;3;1;1;18;0;4481;280;18;433
31/03/2019;464;8263;3;403;30;3;2;0;15;0;9183;545;18;1025;;31/03/2019;231;3777;0;292;17;1;1;0;6;0;4325;255;12;432;;31/03/2019;233;4486;3;111;13;2;1;0;9;0;4858;289;18;698
01/04/2019;196;6820;3;680;119;96;43;34;52;0;8043;510;7;703;;01/04/2019;108;3231;1;414;76;49;32;14;26;0;3951;240;18;440;;01/04/2019;88;3589;2;266;43;47;11;20;26;0;4092;270;7;513
02/04/2019;164;6944;5;776;97;125;43;28;52;0;8234;522;7;711;;02/04/2019;73;3387;0;462;55;67;27;9;28;0;4108;253;18;484;;02/04/2019;91;3557;5;314;42;58;16;19;24;0;4126;269;7;505
03/04/2019;149;7025;4;729;87;99;32;35;56;0;8216;516;7;699;;03/04/2019;55;3405;0;447;48;47;23;9;32;0;4066;247;19;416;;03/04/2019;94;3620;4;282;39;52;9;26;24;0;4150;269;7;525
04/04/2019;123;6795;2;739;90;83;26;26;54;0;7938;505;7;670;;04/04/2019;49;3324;0;453;51;42;19;10;28;0;3976;245;17;405;;04/04/2019;74;3471;2;286;39;41;7;16;26;0;3962;260;7;474
05/04/2019;124;7414;4;781;83;98;31;27;55;0;8617;537;18;691;;05/04/2019;42;3727;0;474;46;50;24;7;30;0;4400;267;18;482;;05/04/2019;82;3687;4;307;37;48;7;20;25;0;4217;270;7;469
06/04/2019;259;8047;4;578;32;25;4;4;39;0;8992;536;18;685;;06/04/2019;118;4032;0;384;19;17;2;1;17;0;4590;274;12;374;;06/04/2019;141;4015;4;194;13;8;2;3;22;0;4402;262;17;364
07/04/2019;165;7078;2;348;19;1;0;0;23;0;7636;444;17;689;;07/04/2019;77;3283;0;255;12;1;0;0;12;0;3640;205;11;378;;07/04/2019;88;3795;2;93;7;0;0;0;11;0;3996;239;17;473
08/04/2019;195;6951;3;752;110;95;31;29;55;0;8221;525;7;732;;08/04/2019;114;3362;0;450;55;53;24;5;25;0;4088;253;18;409;;08/04/2019;81;3589;3;302;55;42;7;24;30;0;4133;273;7;524
09/04/2019;185;7030;2;768;82;102;40;40;53;0;8302;524;7;692;;09/04/2019;78;3419;0;468;49;52;29;13;28;0;4136;254;19;422;;09/04/2019;107;3611;2;300;33;50;11;27;25;0;4166;270;7;476
10/04/2019;143;7271;3;744;88;87;36;45;53;0;8470;535;8;715;;10/04/2019;64;3571;0;449;49;40;25;10;28;0;4236;256;19;413;;10/04/2019;79;3700;3;295;39;47;11;35;25;0;4234;278;7;522
11/04/2019;120;7078;1;773;93;89;46;31;59;0;8290;524;17;686;;11/04/2019;46;3444;0;462;57;46;32;4;30;0;4121;251;17;414;;11/04/2019;74;3634;1;311;36;43;14;27;29;0;4169;273;7;503
12/04/2019;154;7796;7;816;90;123;30;43;55;0;9114;563;18;738;;12/04/2019;72;3916;0;483;50;66;23;11;29;0;4650;279;18;480;;12/04/2019;82;3880;7;333;40;57;7;32;26;0;4464;285;7;530
13/04/2019;245;7870;2;550;34;15;10;4;50;0;8780;524;17;627;;13/04/2019;117;4016;0;368;20;9;8;0;27;0;4565;265;12;374;;13/04/2019;128;3854;2;182;14;6;2;4;23;0;4215;259;16;351
14/04/2019;133;6482;2;334;15;2;1;0;22;0;6991;408;18;625;;14/04/2019;48;2966;0;225;11;2;1;0;13;0;3266;183;12;314;;14/04/2019;85;3516;2;109;4;0;0;0;9;0;3725;225;17;392
15/04/2019;215;7012;1;771;126;75;82;46;55;0;8383;531;7;708;;15/04/2019;55;3338;0;433;58;32;22;14;30;0;3982;243;18;436;;15/04/2019;160;3674;1;338;68;43;60;32;25;0;4401;288;7;533
16/04/2019;271;7480;2;839;87;88;70;30;47;0;8914;563;17;771;;16/04/2019;79;3611;0;451;45;39;20;10;29;0;4284;262;19;436;;16/04/2019;192;3869;2;388;42;49;50;20;18;0;4630;302;7;527
17/04/2019;282;7969;0;826;85;88;58;29;52;0;9389;585;7;787;;17/04/2019;104;3926;0;467;38;31;24;9;30;0;4629;277;19;464;;17/04/2019;178;4043;0;359;47;57;34;20;22;0;4760;308;7;592
18/04/2019;297;7850;5;925;113;79;47;36;54;0;9406;578;17;772;;18/04/2019;157;3935;0;579;65;48;35;13;25;0;4857;288;19;465;;18/04/2019;140;3915;5;346;48;31;12;23;29;0;4549;290;7;481
19/04/2019;294;8714;0;930;88;60;21;28;49;0;10184;624;18;780;;19/04/2019;154;4555;0;596;50;35;15;12;23;0;5440;325;18;503;;19/04/2019;140;4159;0;334;38;25;6;16;26;0;4744;299;7;444
20/04/2019;604;8359;5;650;41;13;5;5;35;0;9717;600;10;820;;20/04/2019;330;4583;0;476;25;7;5;4;20;0;5450;335;11;528;;20/04/2019;274;3776;5;174;16;6;0;1;15;0;4267;265;17;384
21/04/2019;338;7922;3;397;21;4;2;2;3;0;8692;505;11;1001;;21/04/2019;157;3946;0;289;10;3;2;0;2;0;4409;265;11;681;;21/04/2019;181;3976;3;108;11;1;0;2;1;0;4283;240;18;552
22/04/2019;260;8951;3;425;40;10;2;2;16;0;9709;597;18;1070;;22/04/2019;121;3848;0;290;22;7;1;2;9;0;4300;269;11;602;;22/04/2019;139;5103;3;135;18;3;1;0;7;0;5409;328;18;804
23/04/2019;111;7267;2;709;79;61;19;24;55;0;8327;526;17;655;;23/04/2019;25;3368;0;432;45;31;15;9;29;0;3954;243;18;412;;23/04/2019;86;3899;2;277;34;30;4;15;26;0;4373;283;8;418
24/04/2019;171;8024;4;830;97;62;27;39;51;0;9305;577;18;751;;24/04/2019;71;3939;0;519;53;30;18;11;25;0;4666;280;18;465;;24/04/2019;100;4085;4;311;44;32;9;28;26;0;4639;296;7;448
25/04/2019;515;8387;3;509;51;5;3;3;18;0;9494;585;11;837;;25/04/2019;285;4210;0;361;26;4;2;1;10;0;4899;305;11;543;;25/04/2019;230;4177;3;148;25;1;1;2;8;0;4595;280;18;571
26/04/2019;226;7277;4;704;66;19;19;21;53;0;8389;518;17;625;;26/04/2019;86;3564;0;448;40;13;12;4;28;0;4195;252;18;350;;26/04/2019;140;3713;4;256;26;6;7;17;25;0;4194;266;9;355
27/04/2019;383;7719;7;562;32;14;3;6;44;0;8770;532;18;688;;27/04/2019;200;3783;0;375;20;10;3;5;22;0;4418;265;10;349;;27/04/2019;183;3936;7;187;12;4;0;1;22;0;4352;267;17;375
28/04/2019;211;7276;5;382;25;4;2;5;17;0;7927;466;15;657;;28/04/2019;71;3114;0;263;17;0;1;2;10;0;3478;197;12;296;;28/04/2019;140;4162;5;119;8;4;1;3;7;0;4449;270;18;440
29/04/2019;126;7237;3;730;91;56;25;44;55;0;8367;533;7;691;;29/04/2019;54;3450;0;461;49;25;20;9;29;0;4097;251;18;450;;29/04/2019;72;3787;3;269;42;31;5;35;26;0;4270;282;7;489
30/04/2019;178;8071;1;772;85;66;17;30;59;0;9279;571;17;763;;30/04/2019;74;4026;0;484;52;39;10;8;30;0;4723;282;19;494;;30/04/2019;104;4045;1;288;33;27;7;22;29;0;4556;289;7;506
01/05/2019;294;7394;1;381;29;2;2;2;1;0;8106;490;17;748;;01/05/2019;146;3577;0;285;17;2;1;2;1;0;4031;240;11;417;;01/05/2019;148;3817;1;96;12;0;1;0;0;0;4075;250;16;493
02/05/2019;196;7495;5;783;95;45;25;43;58;0;8745;553;7;723;;02/05/2019;100;3617;0;477;54;24;17;12;33;0;4334;266;18;457;;02/05/2019;96;3878;5;306;41;21;8;31;25;0;4411;287;7;498
03/05/2019;129;7930;4;743;82;64;24;24;57;0;9057;565;7;734;;03/05/2019;37;3922;0;474;54;35;20;8;31;0;4581;279;19;473;;03/05/2019;92;4008;4;269;28;29;4;16;26;0;4476;286;7;519